Precipitable_Water
1.78 1.88 1.91 1.97 1.97 1.88 1.83 1.85 1.70 1.59 1.64 1.78 1.77 1.84 1.77 1.76 1.76 1.79 1.82 1.88 1.63 1.62 1.60 1.57 1.44 1.42 1.46 1.55 1.60 1.66 1.70 1.73 1.58 1.46 1.62 1.72 1.80 1.67 1.79 1.89 1.93 1.91 1.95
1.82 1.87 1.98 2.00 1.81 1.61 1.62 1.68 1.62 1.62 1.67 1.62 1.66 1.68 1.67 1.69 1.74 1.80 1.85 1.92 1.60 1.51 1.56 1.63 1.66 1.73 1.76 1.83 1.76 1.59 1.59 1.72 1.70 1.49 1.71 1.73 1.83 1.65 1.69 1.86 1.88 1.89 1.88
1.75 1.99 1.97 1.73 1.60 1.65 1.82 1.88 1.63 1.60 1.70 1.70 1.68 1.70 1.73 1.75 1.85 1.87 1.90 1.79 1.83 1.70 1.73 1.71 1.75 1.80 1.81 1.78 1.44 1.29 1.37 1.56 1.56 1.53 1.63 1.81 1.86 1.89 1.63 1.76 1.81 1.82 1.84
1.77 1.94 1.75 1.68 1.80 1.77 1.84 1.89 1.85 1.73 1.81 1.83 1.77 1.75 1.76 1.82 1.85 1.91 1.84 1.85 1.84 1.83 1.84 1.75 1.72 1.65 1.53 1.33 1.37 1.49 1.56 1.58 1.70 1.82 1.65 1.54 1.77 1.93 1.87 1.61 1.70 1.77 1.78
1.82 1.78 1.68 1.75 1.71 1.77 1.83 1.81 1.77 1.75 1.69 1.88 1.85 1.82 1.84 1.89 1.95 1.96 1.89 1.90 1.90 1.92 1.89 1.88 1.95 1.80 1.71 1.62 1.60 1.73 1.64 1.64 1.68 1.55 1.60 1.48 1.57 1.64 1.96 1.95 1.83 1.78 1.77
1.70 1.66 1.70 1.69 1.77 1.82 1.80 1.71 1.76 1.76 1.73 1.81 1.86 1.85 1.89 1.90 1.96 1.98 1.94 1.90 1.90 1.85 1.90 1.91 1.88 1.78 1.70 1.63 1.65 1.58 1.60 1.60 1.55 1.63 1.67 1.45 1.47 1.45 1.58 1.53 1.54 1.57 1.61
1.52 1.69 1.76 1.78 1.76 1.65 1.71 1.82 1.83 1.84 1.78 1.84 1.87 1.83 1.86 1.90 1.99 1.98 1.88 1.85 1.77 1.81 1.88 1.85 1.82 1.77 1.73 1.62 1.53 1.47 1.48 1.51 1.53 1.52 1.66 1.45 1.42 1.41 1.40 1.41 1.50 1.47 1.60
1.49 1.58 1.77 1.73 1.67 1.69 1.78 1.79 1.79 1.81 1.70 1.80 1.87 1.85 1.84 1.95 1.96 1.92 1.87 1.79 1.78 1.85 1.86 1.84 1.82 1.76 1.68 1.57 1.46 1.41 1.38 1.52 1.55 1.46 1.49 1.46 1.63 1.40 1.38 1.42 1.40 1.41 1.56
1.45 1.64 1.75 1.68 1.69 1.78 1.75 1.69 1.72 1.76 1.76 1.85 1.87 1.82 1.91 1.91 1.92 1.94 1.85 1.77 1.81 1.81 1.79 1.84 1.81 1.74 1.68 1.56 1.44 1.40 1.41 1.47 1.50 1.56 1.57 1.61 1.50 1.38 1.39 1.41 1.36 1.33 1.35
1.46 1.60 1.65 1.65 1.75 1.85 1.78 1.61 1.53 1.73 1.77 1.82 1.83 1.88 1.94 1.95 1.92 1.91 1.79 1.67 1.71 1.75 1.85 1.90 1.85 1.69 1.63 1.60 1.50 1.42 1.37 1.31 1.41 1.47 1.37 1.52 1.35 1.49 1.32 1.30 1.28 1.30 1.30
1.39 1.55 1.52 1.45 1.71 1.83 1.76 1.63 1.60 1.66 1.78 1.85 1.89 1.85 1.94 1.97 2.02 1.90 1.78 1.66 1.69 1.74 1.84 1.89 1.87 1.75 1.64 1.58 1.52 1.44 1.34 1.33 1.34 1.40 1.34 1.20 1.29 1.29 1.25 1.27 1.26 1.26 1.27
1.25 1.44 1.41 1.36 1.71 1.84 1.71 1.56 1.54 1.65 1.71 1.80 1.71 1.85 1.93 1.97 1.95 1.78 1.69 1.67 1.67 1.72 1.81 1.92 1.87 1.76 1.68 1.64 1.54 1.39 1.31 1.26 1.25 1.27 1.23 1.32 1.40 1.38 1.32 1.28 1.30 1.32 1.35
1.33 1.34 1.30 1.34 1.69 1.88 1.64 1.60 1.56 1.58 1.59 1.65 1.74 1.84 1.83 1.77 1.69 1.61 1.66 1.67 1.67 1.63 1.66 1.71 1.71 1.65 1.58 1.57 1.58 1.57 1.52 1.36 1.30 1.29 1.35 1.37 1.33 1.42 1.43 1.41 1.40 1.41 1.42
1.31 1.27 1.20 1.37 1.61 1.70 1.65 1.64 1.65 1.58 1.62 1.60 1.60 1.64 1.67 1.61 1.62 1.66 1.71 1.68 1.56 1.58 1.59 1.64 1.60 1.55 1.51 1.53 1.55 1.52 1.52 1.40 1.37 1.34 1.34 1.36 1.42 1.39 1.40 1.39 1.41 1.44 1.45
1.29 1.25 1.23 1.39 1.55 1.62 1.54 1.63 1.70 1.66 1.61 1.58 1.62 1.71 1.72 1.63 1.58 1.64 1.65 1.67 1.58 1.59 1.60 1.57 1.55 1.47 1.41 1.44 1.54 1.50 1.51 1.51 1.42 1.35 1.30 1.25 1.35 1.38 1.40 1.38 1.38 1.43 1.48
1.43 1.35 1.34 1.40 1.51 1.63 1.54 1.56 1.70 1.72 1.69 1.68 1.71 1.76 1.77 1.68 1.64 1.63 1.61 1.61 1.60 1.53 1.51 1.53 1.46 1.45 1.39 1.48 1.51 1.56 1.54 1.49 1.39 1.34 1.31 1.30 1.26 1.32 1.36 1.41 1.49 1.55 1.58
1.42 1.41 1.38 1.46 1.49 1.57 1.61 1.66 1.63 1.74 1.79 1.70 1.69 1.76 1.75 1.74 1.68 1.58 1.59 1.57 1.59 1.59 1.55 1.53 1.48 1.45 1.39 1.45 1.45 1.48 1.49 1.45 1.39 1.40 1.44 1.48 1.48 1.42 1.45 1.56 1.58 1.60 1.62
1.43 1.41 1.45 1.53 1.53 1.55 1.64 1.69 1.60 1.70 1.76 1.78 1.78 1.75 1.76 1.79 1.76 1.68 1.59 1.58 1.64 1.58 1.54 1.48 1.42 1.35 1.36 1.44 1.47 1.47 1.47 1.45 1.43 1.44 1.51 1.57 1.60 1.64 1.67 1.61 1.64 1.64 1.56
1.41 1.41 1.43 1.51 1.68 1.63 1.69 1.76 1.68 1.73 1.73 1.73 1.75 1.74 1.78 1.79 1.76 1.74 1.65 1.63 1.72 1.58 1.49 1.47 1.40 1.37 1.33 1.43 1.47 1.48 1.48 1.43 1.44 1.46 1.53 1.56 1.66 1.70 1.69 1.72 1.64 1.50 1.49
1.40 1.40 1.46 1.50 1.63 1.83 1.73 1.81 1.83 1.74 1.73 1.71 1.69 1.67 1.65 1.72 1.68 1.72 1.66 1.69 1.74 1.61 1.50 1.48 1.37 1.34 1.34 1.40 1.39 1.39 1.40 1.43 1.45 1.49 1.51 1.58 1.65 1.67 1.70 1.62 1.52 1.54 1.54
1.44 1.40 1.35 1.41 1.47 1.58 1.71 1.63 1.77 1.70 1.76 1.76 1.79 1.79 1.77 1.76 1.70 1.67 1.66 1.70 1.68 1.62 1.56 1.58 1.39 1.33 1.33 1.35 1.32 1.33 1.32 1.33 1.36 1.46 1.52 1.55 1.58 1.62 1.63 1.51 1.61 1.66 1.66
1.44 1.45 1.38 1.34 1.43 1.42 1.58 1.73 1.75 1.81 1.88 1.90 1.91 1.89 1.84 1.71 1.70 1.64 1.60 1.64 1.66 1.55 1.58 1.59 1.40 1.29 1.28 1.33 1.22 1.25 1.08 1.16 1.29 1.37 1.44 1.47 1.52 1.60 1.51 1.54 1.64 1.70 1.71
1.43 1.46 1.45 1.33 1.38 1.41 1.46 1.68 1.88 1.89 1.88 1.86 1.85 1.85 1.84 1.78 1.76 1.68 1.61 1.62 1.65 1.60 1.51 1.56 1.42 1.32 1.17 1.30 1.34 1.27 1.10 1.02 1.12 1.26 1.34 1.42 1.49 1.54 1.48 1.56 1.62 1.66 1.66
1.40 1.53 1.51 1.46 1.36 1.38 1.40 1.47 1.62 1.64 1.62 1.79 1.81 1.79 1.83 1.76 1.68 1.67 1.59 1.62 1.58 1.62 1.56 1.58 1.61 1.47 1.31 1.23 1.32 1.45 1.52 1.41 1.11 1.05 1.25 1.29 1.43 1.46 1.45 1.52 1.58 1.65 1.65
1.46 1.53 1.56 1.53 1.41 1.38 1.37 1.35 1.47 1.61 1.74 1.86 1.88 1.81 1.73 1.75 1.71 1.72 1.69 1.60 1.64 1.65 1.64 1.57 1.59 1.53 1.40 1.36 1.28 1.38 1.47 1.46 1.45 1.24 1.06 1.13 1.31 1.41 1.46 1.53 1.59 1.63 1.67
1.52 1.55 1.61 1.57 1.47 1.48 1.38 1.33 1.33 1.52 1.68 1.73 1.80 1.79 1.71 1.75 1.74 1.66 1.65 1.52 1.51 1.55 1.57 1.52 1.59 1.53 1.47 1.43 1.41 1.42 1.48 1.39 1.38 1.32 1.21 1.21 1.15 1.30 1.46 1.53 1.58 1.63 1.70
Wind_Speed
14 14 14 13 12 11 10 9 9 9 9 10 10 10 11 11 11 11 12 12 13 13 14 14 15 15 15 15 15 15 15 15 16 16 16 17 16 16 16 15 15 15 14
15 14 13 12 11 10 9 8 7 8 8 8 9 9 10 10 10 11 11 12 13 13 14 14 15 15 15 15 15 15 15 15 15 16 16 16 16 16 16 16 16 16 15
15 13 12 11 10 10 9 8 8 8 9 9 9 9 10 10 10 11 12 12 13 13 14 14 14 14 14 14 14 14 14 14 15 16 15 16 16 16 16 16 16 16 16
14 13 12 11 11 11 10 10 10 10 10 10 11 10 11 11 11 12 12 13 13 13 13 14 14 14 14 14 14 14 14 14 14 15 15 15 15 16 16 16 16 16 16
13 12 12 11 11 11 11 11 11 11 11 11 12 12 11 11 12 12 13 13 13 13 13 13 13 13 12 13 13 13 13 14 14 14 14 15 15 15 16 16 16 16 16
13 12 11 11 12 12 12 12 13 12 12 13 13 13 13 13 14 14 15 14 14 14 14 13 13 12 12 12 12 13 13 14 14 14 15 15 14 14 15 15 15 15 15
13 11 12 12 12 12 12 13 13 14 14 14 14 14 15 16 17 16 15 15 15 14 14 14 14 13 14 14 13 13 13 14 14 14 14 14 15 15 15 15 15 15 15
12 12 11 11 12 12 13 13 14 14 15 15 15 15 16 17 17 16 15 14 14 14 14 15 15 14 13 13 13 14 14 14 14 14 14 14 14 15 15 15 15 15 16
12 12 11 11 12 12 13 13 14 14 15 15 16 16 16 16 16 15 15 15 14 13 14 14 14 13 13 14 14 14 14 14 14 14 14 14 14 14 15 15 15 15 15
11 11 11 11 12 12 13 13 14 15 15 15 16 16 16 15 15 15 14 14 13 13 13 13 14 14 14 14 14 14 13 13 13 14 14 14 14 15 15 15 15 15 15
11 11 11 11 12 12 13 14 15 15 15 15 15 15 15 14 14 13 14 14 13 13 13 13 14 14 14 14 14 13 13 13 14 14 14 14 14 15 15 15 15 15 14
11 10 10 11 12 13 13 14 15 15 15 14 15 15 14 14 14 13 14 14 14 13 13 14 14 13 13 13 13 13 13 14 14 14 14 15 15 15 15 15 14 14 14
11 10 10 12 12 12 13 14 14 14 15 15 15 14 14 14 14 14 14 14 14 14 14 13 12 12 12 12 13 13 14 15 15 15 15 15 15 14 14 14 14 14 14
11 10 11 12 12 12 13 13 14 14 14 14 14 14 15 14 14 14 14 14 14 14 13 13 13 12 12 12 12 14 15 16 16 15 15 15 14 14 13 13 13 14 14
11 11 11 12 12 12 13 13 14 14 13 14 14 14 14 14 13 13 13 14 14 13 13 12 13 13 13 13 14 14 15 16 15 15 15 14 14 14 13 13 14 14 14
12 11 11 11 12 12 13 13 13 13 13 13 13 13 12 12 11 11 11 12 12 12 12 12 12 12 13 14 14 15 15 15 15 15 14 14 14 13 13 14 14 14 14
12 12 12 12 12 12 12 12 12 12 11 11 11 10 10 10 10 10 10 11 11 11 11 11 11 12 13 13 14 14 13 13 13 13 13 13 13 13 13 13 14 14 14
12 12 12 11 11 11 11 11 11 10 10 10 10 9 9 9 9 9 10 10 10 9 9 10 11 11 12 12 13 12 12 12 12 12 12 12 12 12 13 13 13 13 13
12 12 11 11 11 10 10 10 9 9 9 10 9 9 8 8 8 9 9 9 9 8 9 10 10 10 10 10 10 10 10 10 10 10 10 10 11 11 11 11 11 11 12
11 11 11 10 10 9 8 9 9 9 8 8 8 8 7 8 7 7 7 8 7 7 8 8 8 8 8 8 9 9 9 9 9 9 9 9 10 10 9 9 10 10 11
12 11 11 10 10 9 9 9 8 8 7 7 6 6 6 6 6 6 7 7 6 7 7 6 7 6 7 7 8 8 9 9 9 9 8 8 8 8 8 8 9 9 10
13 11 10 11 10 9 9 9 7 8 6 5 5 5 5 6 6 6 8 7 6 7 6 5 6 6 7 7 8 8 8 9 8 8 8 8 7 7 7 7 7 7 9
14 13 11 10 11 11 10 9 8 7 6 6 5 5 5 5 6 6 7 7 6 6 6 5 6 6 6 7 7 7 7 7 6 7 7 7 7 6 6 5 5 5 6
16 14 12 11 11 11 10 9 9 7 6 5 5 4 5 5 6 6 6 7 7 7 6 6 5 4 5 6 7 6 6 6 6 6 6 7 7 6 5 3 2 3 5
16 15 13 12 11 11 11 10 9 8 7 6 5 5 5 5 5 7 6 7 8 7 6 7 6 5 5 5 6 7 6 6 5 6 6 7 7 6 4 3 1 1 3
17 15 14 12 12 12 11 11 10 9 9 7 6 6 5 5 5 7 7 7 8 8 7 7 8 6 5 5 6 7 6 6 5 6 7 6 6 6 4 3 2 2 3
Wind_Direction
111 108 106 102 97 95 94 96 101 107 108 106 106 103 101 99 99 99 98 97 95 96 98 99 100 101 102 102 101 101 99 97 95 96 96 96 95 92 91 88 86 88 91
115 110 106 99 94 90 89 92 99 109 113 116 112 109 107 103 103 102 101 101 97 99 100 101 101 102 103 103 102 102 100 97 97 98 97 96 94 90 90 86 87 88 89
115 108 103 96 90 86 84 88 99 111 111 115 115 113 109 106 104 105 105 103 101 101 101 102 103 102 103 104 102 102 103 100 99 100 99 97 94 89 89 88 87 87 86
114 108 99 93 87 83 82 86 97 107 109 112 113 111 109 107 107 108 106 106 103 102 103 102 103 103 101 103 102 102 102 102 102 102 100 99 96 88 87 88 87 86 85
112 105 98 92 88 83 83 87 95 102 110 111 109 109 108 106 106 108 108 108 104 102 103 103 103 103 103 102 100 103 105 105 104 104 101 100 97 92 88 87 86 85 83
109 103 96 92 88 85 84 88 94 100 108 111 109 107 104 103 106 108 107 106 103 100 99 99 102 103 104 106 104 104 105 106 105 105 104 99 98 92 91 87 85 83 81
107 101 96 92 88 86 88 90 94 99 105 109 107 104 103 104 104 104 104 104 103 100 96 94 100 101 99 103 105 106 106 107 106 105 104 100 97 94 92 89 84 83 82
105 101 97 92 89 88 88 92 96 99 104 107 106 104 105 106 102 102 103 104 105 100 96 95 98 97 98 100 103 105 106 107 107 104 104 102 99 94 92 88 84 84 83
106 102 97 94 90 90 89 93 99 102 104 106 106 106 106 107 101 99 100 103 104 102 100 96 96 99 95 100 103 104 105 107 107 106 105 104 99 96 93 88 85 85 84
110 103 98 96 93 92 89 93 101 106 105 106 108 106 107 106 101 97 96 100 101 103 103 99 95 98 94 98 100 103 105 106 108 107 106 104 101 98 94 89 86 85 83
114 107 100 99 98 94 91 94 103 108 106 106 108 110 107 104 102 98 96 99 99 99 103 103 98 95 98 97 99 100 103 107 109 108 107 106 103 100 95 91 87 83 81
120 113 105 104 104 97 94 98 105 108 107 105 109 110 105 104 100 98 97 98 100 100 100 104 97 96 97 97 97 98 101 107 109 110 109 107 105 101 95 90 85 82 79
126 117 113 110 108 101 98 100 105 109 109 107 108 109 107 105 101 99 99 98 100 101 100 100 96 95 94 97 97 98 102 107 109 110 110 108 106 102 96 90 84 81 76
132 123 119 117 113 105 104 104 107 111 111 109 108 109 108 105 102 100 98 98 100 100 99 96 91 92 96 100 101 101 104 106 108 109 109 108 106 102 96 90 85 81 75
135 128 125 124 119 111 109 109 110 111 113 112 111 110 108 106 103 102 100 99 101 99 98 98 92 90 94 99 104 106 107 107 107 107 108 107 105 101 95 90 86 82 76
139 133 128 127 126 119 114 113 112 112 113 116 115 113 109 105 106 106 105 104 102 99 97 97 94 92 97 102 105 108 108 107 106 107 107 106 103 100 96 91 89 83 76
146 139 133 129 128 127 123 118 116 114 113 121 122 119 114 111 106 109 108 111 106 100 97 98 96 97 102 106 108 110 110 109 109 108 108 106 104 100 96 92 89 81 73
148 145 140 133 130 132 130 126 124 119 115 121 128 125 120 118 113 112 112 115 111 104 99 102 101 102 106 109 112 112 113 113 114 114 112 110 106 103 98 93 87 78 69
156 153 150 145 141 135 136 134 131 126 120 121 120 128 128 125 122 120 118 117 112 109 104 109 108 106 110 115 118 118 119 120 120 119 116 113 110 106 100 92 83 75 66
165 163 162 157 153 150 144 146 139 135 127 126 124 127 130 133 133 132 129 128 124 115 117 113 112 113 114 122 125 124 125 127 128 127 124 121 117 111 102 92 85 75 64
173 171 174 172 167 163 158 155 151 148 139 138 138 134 141 148 148 144 143 136 130 132 128 119 121 119 120 125 133 128 128 129 132 132 131 131 128 118 107 98 88 74 63
182 178 178 180 178 172 167 165 161 159 157 150 149 151 149 153 153 153 157 150 136 140 137 123 126 129 128 130 139 137 133 137 134 135 138 139 139 130 117 107 91 73 57
190 187 183 181 182 180 177 175 170 163 161 162 164 167 169 166 168 166 171 175 163 157 151 138 129 132 137 141 144 144 148 144 149 149 148 150 149 143 130 115 93 66 45
193 192 191 189 186 187 186 186 186 186 179 171 171 170 172 173 179 179 176 181 182 177 171 165 151 137 145 147 161 155 151 150 155 157 156 158 160 156 150 138 97 50 30
193 193 193 194 195 195 197 198 198 198 191 181 180 181 182 186 185 187 185 186 184 186 185 182 177 165 160 159 164 174 167 165 161 169 161 161 167 168 171 173 185 360 13
196 195 195 198 201 202 204 205 206 207 202 199 204 202 197 196 196 196 195 195 197 198 198 200 197 192 185 181 179 181 180 179 173 175 179 178 182 184 195 203 241 299 332